QTR744 KBOS-OTHH

Flight info

Callsign QTR744
Flight time N/A
Altitude 35000
Route LBSTA8 LBSTA DCT ALLEX DCT CADIL DCT RIKAL/M086F360 NATS NETKI/N0496F370 DCT NIBOG DCT REMSI DCT BELOX L603 DOLAS DCT NAVPI DCT DODEN DCT NEGIX DCT DINKU DCT BESNI DCT GOMIG DCT BEDOX/N0486F390 DCT GUBOK DCT VEBAR DCT VABEK UL603 OLOTA DCT DISOR DCT MES UL609 RDS DCT VANZA DCT LAKTO L560 SILKA M872 BDB Y214 TUKVU/N0489F410 Y214 RAPMA/N0523F290 Y214 ASPUS Y432 LADBO T142 LAEEB
Aircraft B789/H-SDE1E2E3FGHIJ2J3J4J5M1RWXY/LB1D1

Departure

Time 2026-05-07 22:43
Airport Boston Logan International Airport (KBOS)

Arrival

Time N/A
Airport Hamad International Airport (OTHH)
Time Latitude Longitude Altitude Speed Heading
2026-05-07 22:06 42.36883 -71.01557 32 ft 0 kts 186°
2026-05-07 22:21 42.36887 -71.01557 32 ft 2 kts 186°
2026-05-07 22:21 42.36903 -71.01555 32 ft 3 kts 186°
2026-05-07 22:21 42.36922 -71.01552 32 ft 3 kts 186°
2026-05-07 22:21 42.36942 -71.01549 32 ft 3 kts 186°
2026-05-07 22:22 42.36963 -71.01546 32 ft 3 kts 186°
2026-05-07 22:22 42.36983 -71.01543 32 ft 3 kts 186°
2026-05-07 22:22 42.36995 -71.01542 32 ft 0 kts 186°
2026-05-07 22:25 42.36990 -71.01541 32 ft 1 kts 172°
2026-05-07 22:25 42.36987 -71.01539 32 ft 1 kts 159°
2026-05-07 22:25 42.36984 -71.01536 32 ft 1 kts 141°
2026-05-07 22:25 42.36981 -71.01532 32 ft 0 kts 131°
2026-05-07 22:26 42.36981 -71.01531 32 ft 0 kts 131°
2026-05-07 22:29 42.36981 -71.01530 32 ft 0 kts 131°
2026-05-07 22:29 42.36980 -71.01530 32 ft 0 kts 131°
2026-05-07 22:30 42.36978 -71.01526 32 ft 2 kts 131°
2026-05-07 22:30 42.36964 -71.01504 32 ft 5 kts 131°
2026-05-07 22:30 42.36936 -71.01464 32 ft 7 kts 133°
2026-05-07 22:30 42.36895 -71.01406 32 ft 10 kts 137°
2026-05-07 22:31 42.36843 -71.01339 32 ft 11 kts 136°
2026-05-07 22:31 42.36792 -71.01276 32 ft 10 kts 142°
2026-05-07 22:31 42.36723 -71.01244 32 ft 10 kts 185°
2026-05-07 22:31 42.36655 -71.01266 32 ft 10 kts 195°
2026-05-07 22:32 42.36589 -71.01293 32 ft 11 kts 197°
2026-05-07 22:32 42.36514 -71.01339 32 ft 13 kts 206°
2026-05-07 22:32 42.36434 -71.01385 32 ft 13 kts 201°
2026-05-07 22:32 42.36360 -71.01363 32 ft 11 kts 130°
2026-05-07 22:33 42.36319 -71.01278 32 ft 11 kts 122°
2026-05-07 22:33 42.36278 -71.01190 32 ft 11 kts 121°
2026-05-07 22:33 42.36244 -71.01099 32 ft 9 kts 114°
2026-05-07 22:33 42.36219 -71.01024 32 ft 10 kts 114°
2026-05-07 22:34 42.36187 -71.00929 32 ft 12 kts 114°
2026-05-07 22:34 42.36157 -71.00834 32 ft 11 kts 114°
2026-05-07 22:34 42.36129 -71.00749 32 ft 11 kts 114°
2026-05-07 22:34 42.36106 -71.00666 32 ft 9 kts 108°
2026-05-07 22:35 42.36084 -71.00575 32 ft 11 kts 109°
2026-05-07 22:35 42.36055 -71.00464 32 ft 13 kts 109°
2026-05-07 22:35 42.36022 -71.00336 32 ft 15 kts 109°
2026-05-07 22:35 42.35988 -71.00197 32 ft 14 kts 109°
2026-05-07 22:36 42.35944 -71.00072 32 ft 14 kts 126°
2026-05-07 22:36 42.35886 -70.99989 32 ft 12 kts 136°
2026-05-07 22:36 42.35822 -70.99903 32 ft 14 kts 135°
2026-05-07 22:36 42.35750 -70.99808 32 ft 14 kts 136°
2026-05-07 22:37 42.35691 -70.99729 32 ft 13 kts 135°
2026-05-07 22:37 42.35626 -70.99643 32 ft 12 kts 136°
2026-05-07 22:37 42.35567 -70.99566 32 ft 10 kts 135°
2026-05-07 22:37 42.35523 -70.99504 32 ft 9 kts 134°
2026-05-07 22:38 42.35489 -70.99436 32 ft 6 kts 101°
2026-05-07 22:38 42.35491 -70.99400 32 ft 2 kts 77°
2026-05-07 22:38 42.35492 -70.99395 32 ft 0 kts 77°
2026-05-07 22:38 42.35492 -70.99394 32 ft 0 kts 77°
2026-05-07 22:40 42.35493 -70.99392 32 ft 1 kts 77°
2026-05-07 22:41 42.35495 -70.99376 32 ft 3 kts 77°
2026-05-07 22:41 42.35501 -70.99341 32 ft 5 kts 77°
2026-05-07 22:41 42.35518 -70.99288 32 ft 6 kts 37°
2026-05-07 22:41 42.35561 -70.99299 32 ft 7 kts 323°
2026-05-07 22:42 42.35594 -70.99338 32 ft 2 kts 316°
2026-05-07 22:42 42.35640 -70.99399 32 ft 39 kts 315°
2026-05-07 22:42 42.36023 -70.99912 32 ft 113 kts 315°
2026-05-07 22:42 42.36746 -71.00881 32 ft 177 kts 315°
2026-05-07 22:43 42.37670 -71.02109 162 ft 173 kts 315°
2026-05-07 22:43 42.38493 -71.03186 384 ft 172 kts 316°
2026-05-07 22:43 42.39247 -71.04476 905 ft 183 kts 300°
2026-05-07 22:43 42.39855 -71.06064 1438 ft 196 kts 297°
2026-05-07 22:44 42.40501 -71.07776 1838 ft 213 kts 297°
2026-05-07 22:44 42.41372 -71.09496 2082 ft 237 kts 317°
2026-05-07 22:44 42.42864 -71.10607 2555 ft 247 kts 336°
2026-05-07 22:44 42.44475 -71.11548 3003 ft 257 kts 337°
2026-05-07 22:45 42.46150 -71.12485 3553 ft 262 kts 338°
2026-05-07 22:45 42.47820 -71.13409 4297 ft 257 kts 338°
2026-05-07 22:45 42.49457 -71.14311 5055 ft 252 kts 337°
2026-05-07 22:45 42.51139 -71.14990 5650 ft 256 kts 352°
2026-05-07 22:46 42.52898 -71.14528 6149 ft 267 kts 21°
2026-05-07 22:46 42.54310 -71.12896 6581 ft 280 kts 51°
2026-05-07 22:46 42.55174 -71.10437 6984 ft 290 kts 67°
2026-05-07 22:46 42.55970 -71.07932 7370 ft 296 kts 62°
2026-05-07 22:47 42.56948 -71.05469 7842 ft 299 kts 58°
2026-05-07 22:47 42.58063 -71.03031 8152 ft 308 kts 54°
2026-05-07 22:47 42.59260 -71.00610 8641 ft 309 kts 53°
2026-05-07 22:47 42.60485 -70.98224 9208 ft 307 kts 52°
2026-05-07 22:48 42.61727 -70.95853 9676 ft 309 kts 52°
2026-05-07 22:48 42.62991 -70.93464 10074 ft 314 kts 51°
2026-05-07 22:48 42.64275 -70.91049 10605 ft 316 kts 51°
2026-05-07 22:48 42.65574 -70.88609 11017 ft 327 kts 51°
2026-05-07 22:49 42.66941 -70.86045 11250 ft 341 kts 51°
2026-05-07 22:49 42.68350 -70.83400 11583 ft 352 kts 51°
2026-05-07 22:49 42.69822 -70.80632 12045 ft 358 kts 51°
2026-05-07 22:49 42.71282 -70.77880 12653 ft 358 kts 52°
2026-05-07 22:50 42.72735 -70.75138 13215 ft 359 kts 52°
2026-05-07 22:50 42.74216 -70.72343 13638 ft 362 kts 52°
2026-05-07 22:50 42.75684 -70.69571 13860 ft 364 kts 52°
2026-05-07 22:50 42.77164 -70.66773 13969 ft 365 kts 52°
2026-05-07 22:51 42.78625 -70.64008 13979 ft 365 kts 52°
2026-05-07 22:51 42.80073 -70.61168 13989 ft 366 kts 54°
2026-05-07 22:51 42.81483 -70.58243 14248 ft 369 kts 55°
2026-05-07 22:51 42.82879 -70.55307 14672 ft 369 kts 55°
2026-05-07 22:52 42.84270 -70.52373 15027 ft 371 kts 55°
2026-05-07 22:52 42.85679 -70.49395 15331 ft 374 kts 55°
2026-05-07 22:52 42.87094 -70.46406 15656 ft 376 kts 55°
2026-05-07 22:52 42.88511 -70.43406 16000 ft 377 kts 55°
2026-05-07 22:53 42.89935 -70.40392 16322 ft 379 kts 55°
2026-05-07 22:53 42.91366 -70.37360 16626 ft 381 kts 55°
2026-05-07 22:53 42.92800 -70.34319 16931 ft 383 kts 55°
2026-05-07 22:53 42.94246 -70.31248 17240 ft 384 kts 55°
2026-05-07 22:54 42.95691 -70.28177 17540 ft 386 kts 55°
2026-05-07 22:54 42.97149 -70.25076 17832 ft 388 kts 55°
2026-05-07 22:54 42.98604 -70.21975 18119 ft 390 kts 55°
2026-05-07 22:54 43.00070 -70.18851 18381 ft 392 kts 55°
2026-05-07 22:55 43.01570 -70.15652 18358 ft 408 kts 55°
2026-05-07 22:55 43.03135 -70.12316 18405 ft 426 kts 56°
2026-05-07 22:55 43.04752 -70.08858 18731 ft 438 kts 56°
2026-05-07 22:55 43.06413 -70.05299 19110 ft 448 kts 56°
2026-05-07 22:56 43.08093 -70.01693 19703 ft 452 kts 56°
2026-05-07 22:56 43.09785 -69.98057 20398 ft 453 kts 56°
2026-05-07 22:56 43.11485 -69.94399 20996 ft 457 kts 56°
2026-05-07 22:56 43.13201 -69.90706 21534 ft 462 kts 56°
2026-05-07 22:57 43.14933 -69.86974 22110 ft 466 kts 56°
2026-05-07 22:57 43.16652 -69.83265 22695 ft 469 kts 56°
2026-05-07 22:57 43.18404 -69.79480 23254 ft 473 kts 56°
2026-05-07 22:57 43.20171 -69.75657 23789 ft 477 kts 56°
2026-05-07 22:58 43.21952 -69.71800 24328 ft 480 kts 56°
2026-05-07 22:58 43.23768 -69.67861 24868 ft 484 kts 56°
2026-05-07 22:58 43.25551 -69.63990 25374 ft 487 kts 56°
2026-05-07 22:58 43.27390 -69.59990 25881 ft 491 kts 56°
2026-05-07 22:59 43.29195 -69.56058 26371 ft 494 kts 56°
2026-05-07 22:59 43.31033 -69.52050 26853 ft 498 kts 56°
2026-05-07 22:59 43.32908 -69.47956 27327 ft 501 kts 56°
2026-05-07 22:59 43.34771 -69.43884 27786 ft 505 kts 56°
2026-05-07 23:00 43.36639 -69.39793 28236 ft 508 kts 56°
2026-05-07 23:00 43.38525 -69.35657 28679 ft 511 kts 56°
2026-05-07 23:00 43.40413 -69.31511 29114 ft 515 kts 56°
2026-05-07 23:00 43.42326 -69.27304 29549 ft 518 kts 56°
2026-05-07 23:01 43.44239 -69.23093 29980 ft 521 kts 57°
2026-05-07 23:01 43.46135 -69.18912 30399 ft 524 kts 57°
2026-05-07 23:01 43.47423 -69.16067 30706 ft 526 kts 57°
2026-05-07 23:01 43.50028 -69.10307 31468 ft 525 kts 57°
2026-05-07 23:02 43.51925 -69.06102 32165 ft 521 kts 57°
2026-05-07 23:02 43.53828 -69.01879 32881 ft 516 kts 57°
2026-05-07 23:02 43.55716 -68.97683 33454 ft 514 kts 57°
2026-05-07 23:02 43.57602 -68.93487 33873 ft 514 kts 57°
2026-05-07 23:03 43.59510 -68.89239 34254 ft 516 kts 57°
2026-05-07 23:03 43.61371 -68.85086 34664 ft 516 kts 57°
2026-05-07 23:03 43.63286 -68.80810 34975 ft 517 kts 57°
2026-05-07 23:04 43.67063 -68.72354 35008 ft 523 kts 57°
2026-05-07 23:04 43.70890 -68.63759 34991 ft 526 kts 57°
2026-05-07 23:05 43.74101 -68.56527 34993 ft 528 kts 57°
2026-05-07 23:05 43.77937 -68.47863 35003 ft 529 kts 57°
2026-05-07 23:06 43.81775 -68.39171 34993 ft 529 kts 57°
2026-05-07 23:06 43.85602 -68.30476 34996 ft 529 kts 57°
2026-05-07 23:07 43.89427 -68.21760 35004 ft 529 kts 57°
2026-05-07 23:07 43.93251 -68.13021 34991 ft 529 kts 57°
2026-05-07 23:08 43.97069 -68.04269 34999 ft 529 kts 57°
2026-05-07 23:08 44.00877 -67.95513 35001 ft 529 kts 57°
2026-05-07 23:09 44.04678 -67.86746 34990 ft 529 kts 57°
2026-05-07 23:09 44.08466 -67.77982 35001 ft 529 kts 58°
2026-05-07 23:10 44.12254 -67.69194 35000 ft 529 kts 58°
2026-05-07 23:10 44.16037 -67.60387 34991 ft 529 kts 58°
2026-05-07 23:11 44.19803 -67.51593 35004 ft 529 kts 58°
2026-05-07 23:11 44.23549 -67.42822 34995 ft 529 kts 58°
2026-05-07 23:12 44.27307 -67.33993 34993 ft 529 kts 58°